CDT,Max TemperatureF,Mean TemperatureF,Min TemperatureF,Max Dew PointF,MeanDew PointF,Min DewpointF,Max Humidity, Mean Humidity, Min Humidity, Max Sea Level PressureIn, Mean Sea Level PressureIn, Min Sea Level PressureIn, Max VisibilityMiles, Mean VisibilityMiles, Min VisibilityMiles, Max Wind SpeedMPH, Mean Wind SpeedMPH, Max Gust SpeedMPH,PrecipitationIn, CloudCover, Events, WindDirDegrees
2012-10-1,66,56,44,45,37,28,81,53,26,30.07,30.02,29.93,10,10,10,24,12,32,0.00,0,,337
2012-10-2,69,55,41,43,33,27,93,48,20,30.00,29.85,29.75,10,10,10,23,8,29,0.00,0,Thunderstorm,181
2012-10-3,68,55,42,45,39,30,87,61,33,29.92,29.87,29.81,10,9,2,21,5,29,0.00,1,Rain,35
2012-10-4,50,41,32,43,36,32,100,92,76,30.13,29.94,29.74,10,7,1,33,20,48,0.08,7,Rain-Snow,325
2012-10-5,35,34,32,32,31,28,100,92,81,30.22,30.15,30.10,10,9,2,26,21,34,0.00,7,Snow,311
2012-10-6,42,36,30,32,29,27,100,82,53,30.34,30.27,30.17,10,10,3,16,11,23,0.00,5,Snow,319
2012-10-7,53,42,32,32,26,21,87,58,28,30.17,29.95,29.76,10,10,10,17,10,24,0.00,1,,222
2012-10-8,50,44,37,45,36,28,93,74,54,29.76,29.63,29.52,10,10,10,21,8,29,0.03,3,Rain,230
2012-10-9,42,37,32,36,32,28,100,83,66,29.99,29.82,29.68,10,10,5,22,12,33,0.00,4,Rain,302
2012-10-10,46,38,30,36,31,23,100,82,40,30.02,29.97,29.89,10,10,5,14,7,17,0.04,2,Rain,269
2012-10-11,42,36,30,36,30,25,100,84,49,30.39,30.18,29.91,10,10,7,16,8,24,0.00,3,,338
2012-10-12,50,39,28,30,24,18,100,61,28,30.39,30.19,29.86,10,10,10,21,8,30,0.00,1,,171
2012-10-13,62,52,41,41,36,19,81,57,30,29.86,29.74,29.66,10,10,10,16,10,22,0.00,2,,211
2012-10-14,51,42,32,36,34,30,100,78,47,29.93,29.89,29.81,10,10,10,15,8,23,0.00,0,,330
2012-10-15,55,44,32,39,37,32,100,73,51,29.93,29.80,29.59,10,8,2,16,5,21,0.00,0,,163
2012-10-16,69,58,46,48,45,39,93,63,40,29.59,29.47,29.32,10,10,10,12,5,,0.00,0,Rain,184
2012-10-17,55,48,42,50,45,41,100,90,67,29.32,29.19,29.12,10,8,2,21,9,25,0.52,6,Rain,253
2012-10-18,46,44,42,46,43,41,100,99,93,29.51,29.28,29.13,10,5,1,34,12,40,0.38,8,Rain,343
2012-10-19,42,40,39,43,41,39,100,99,93,29.75,29.68,29.51,10,6,0,25,17,38,0.14,8,Fog-Rain,342
2012-10-20,50,44,39,45,41,39,100,91,71,29.75,29.72,29.68,10,9,1,16,5,22,0.00,5,Rain,175
2012-10-21,53,48,44,48,44,43,93,87,71,30.02,29.83,29.71,10,10,7,16,8,23,0.00,1,Rain,52
2012-10-22,57,49,41,45,41,37,100,76,51,30.05,29.99,29.89,10,10,7,15,8,22,0.00,3,Rain,72
2012-10-23,53,50,46,54,48,43,100,96,82,29.89,29.75,29.66,10,4,1,16,9,18,0.01,8,Rain,136
2012-10-24,51,42,33,52,39,34,100,93,87,29.97,29.91,29.78,10,9,5,15,12,24,0.01,8,Rain,326
2012-10-25,35,34,32,32,30,28,100,85,75,30.10,29.97,29.90,10,10,10,24,17,31,0.00,6,,315
2012-10-26,35,34,32,28,23,18,87,67,52,30.28,30.24,30.10,10,10,10,23,16,32,0.00,6,,288
2012-10-27,35,32,28,30,26,21,93,80,56,30.32,30.28,30.26,10,9,1,10,6,,0.00,4,Snow,307
2012-10-28,35,32,30,34,31,30,100,97,87,30.27,30.25,30.21,10,9,1,9,5,,0.07,7,Snow,84
2012-10-29,46,40,35,32,30,27,87,72,49,30.21,30.18,30.15,10,10,10,18,11,24,0.00,0,,140
2012-10-30,42,38,35,32,30,27,87,72,57,30.21,30.16,30.08,10,10,10,14,9,18,0.00,2,,137
2012-10-31,50,42,33,37,32,28,87,72,50,30.09,30.01,29.93,10,10,10,18,5,22,0.00,4,,183